Tracking 19794 objects as of 21-Jul-2019
HD Live streaming from Space Station
objects crossing your sky now

FENGYUN 1C DEB

Track FENGYUN 1C DEB now!
10-day predictions


NORAD ID: 33646
Int'l Code: 1999-025DEF
Perigee: 836.2 km
Apogee: 1,018.4 km
Inclination: 98.6 °
Period: 103.4 minutes
Semi major axis: 7298 km
RCS: 0.0171 m2 (small)
Launch date: May 10, 1999
Source: People's Republic of China (PRC)
Launch site: Taiyaun Space Center, China (TSC)

Note: This is SATELLITE DEBRIS
aabbcc
Your satellite tracking list
Your tracking list is empty




NASA's NSSDC Master Catalog

Two Line Element Set (TLE):
1 33646U 99025DEF 19201.33070927 +.00000187 +00000-0 +16501-3 0  9993
2 33646 098.5631 247.8492 0124813 181.5635 241.7306 13.92416699394403
Source of the keplerian elements: AFSPC